Probability
0 0 0 0 0 0 0 0 0 3 15 31 47 54 50 38 27 21 19 17 16 13 9 7 6 2 0 0 0 0 0 0 0 0 0 0 0 0 0 0 0 0 0
0 0 0 0 0 0 0 0 0 2 8 20 36 48 53 50 44 39 33 27 24 20 15 13 11 7 3 1 0 0 0 0 0 0 0 0 0 0 0 0 0 0 0
0 0 0 0 0 0 0 0 0 0 2 8 19 34 48 57 58 59 57 49 39 30 22 18 15 12 7 3 1 0 0 0 0 0 0 0 0 0 0 0 0 0 0
0 0 0 0 0 0 0 0 0 0 0 2 6 16 30 41 48 57 63 63 55 41 30 22 18 15 10 6 4 2 0 0 0 0 0 0 0 0 0 0 0 0 0
0 0 0 0 0 0 0 0 0 0 0 0 1 5 12 19 29 39 49 56 57 50 40 32 26 20 13 9 7 5 2 0 0 0 0 0 0 0 0 0 0 0 0
0 0 0 0 0 0 0 0 0 0 0 0 0 1 4 8 16 24 32 40 45 46 42 38 32 24 15 10 9 7 4 1 0 0 0 0 0 0 0 0 0 0 0
0 0 0 0 0 0 0 0 0 0 0 0 0 0 1 3 7 13 20 26 30 32 33 33 29 22 15 12 11 9 4 2 0 0 0 0 0 0 0 0 0 0 0
0 0 0 0 0 0 0 0 0 0 0 0 0 0 0 1 3 6 10 14 16 18 21 23 22 20 15 12 11 8 4 1 0 0 0 0 0 0 0 0 0 0 0
0 0 0 0 0 0 0 0 0 0 0 0 0 0 0 0 1 2 4 6 6 8 11 15 17 17 13 9 7 5 2 1 0 0 0 0 0 0 0 0 0 0 0
0 0 0 0 0 0 0 0 0 0 0 0 0 0 0 0 0 0 1 1 1 2 5 9 12 12 10 6 4 2 1 0 0 0 0 0 0 0 0 0 0 0 0
0 0 0 0 0 0 0 0 0 0 0 0 0 0 0 0 0 0 0 0 0 1 2 4 6 7 6 4 2 0 0 0 0 0 0 0 0 0 0 0 0 0 0
0 0 0 0 0 0 0 0 0 0 0 0 0 0 0 0 0 0 0 0 0 0 0 1 3 3 2 1 0 0 0 0 0 0 0 0 0 0 0 0 0 0 0
0 0 0 0 0 0 0 0 0 0 0 0 0 0 0 0 0 0 0 0 0 0 0 0 1 1 0 0 0 0 0 0 0 0 0 0 0 0 0 0 0 0 0
0 0 0 0 0 0 0 0 0 0 0 0 0 0 0 0 0 0 0 0 0 0 0 0 0 0 0 0 0 0 0 0 0 0 0 0 0 0 0 0 0 0 0
0 0 0 0 0 0 0 0 0 0 0 0 0 0 0 0 0 0 0 0 0 0 0 0 0 0 0 0 0 0 0 0 0 0 0 0 0 0 0 0 0 0 0
0 0 0 0 0 0 0 0 0 0 0 0 0 0 0 0 0 0 0 0 0 0 0 0 0 0 0 0 0 0 0 0 0 0 0 0 0 0 0 0 0 0 0
0 0 0 0 0 0 0 0 0 0 0 0 0 0 0 0 0 0 0 0 0 0 0 0 0 0 0 0 0 0 0 0 0 0 0 0 0 0 0 0 0 0 0
0 0 0 0 0 0 0 0 0 0 0 0 0 0 0 0 0 0 0 0 0 0 0 0 0 0 0 0 0 0 0 0 0 0 0 0 0 0 0 0 0 0 0
0 0 0 0 0 0 0 0 0 0 0 0 0 0 0 0 0 0 0 0 0 0 0 0 0 0 0 0 0 0 0 0 0 0 0 0 0 0 0 0 0 0 0
0 0 0 0 0 0 0 0 0 0 0 0 0 0 0 0 0 0 0 0 0 0 0 0 0 0 0 0 0 0 0 0 0 0 0 0 0 0 0 0 0 0 0
0 0 0 0 0 0 0 0 0 0 0 0 0 0 0 0 0 0 0 0 0 0 0 0 0 0 0 0 0 0 0 0 0 0 0 0 0 0 0 0 0 0 0
0 0 0 0 0 0 0 0 0 0 0 0 0 0 0 0 0 0 0 0 0 0 0 0 0 0 0 0 0 0 0 0 0 0 0 0 0 0 0 0 0 0 0
0 0 0 0 0 0 0 0 0 0 0 0 0 0 0 0 0 0 0 0 0 0 0 0 0 0 0 0 0 0 0 0 0 0 0 0 0 0 0 0 0 0 0
0 0 0 0 0 0 0 0 0 0 0 0 0 0 0 0 0 0 0 0 0 0 0 0 0 0 0 0 0 0 0 0 0 0 0 0 0 0 0 0 0 0 0
0 0 0 0 0 0 0 0 0 0 0 0 0 0 0 0 0 0 0 0 0 0 0 0 0 0 0 0 0 0 0 0 0 0 0 0 0 0 0 0 0 0 0
0 0 0 0 0 0 0 0 0 0 0 0 0 0 0 0 0 0 0 0 0 0 0 0 0 0 0 0 0 0 0 0 0 0 0 0 0 0 0 0 0 0 0
Wind_Speed
7 6 6 6 7 7 9 10 10 11 10 9 9 10 10 10 10 11 14 14 14 14 14 11 13 12 12 13 13 11 11 8 7 5 5 5 6 7 7 7 8 9 9
3 3 3 3 3 5 6 8 9 10 10 9 9 9 10 9 10 10 12 14 15 15 13 15 12 13 12 14 14 13 9 8 9 7 5 5 7 8 8 8 8 9 8
3 4 4 4 3 3 4 4 6 7 8 9 8 7 8 8 8 10 11 14 16 16 15 16 14 13 13 13 15 16 16 11 10 9 8 6 8 5 6 9 8 9 8
6 6 6 6 6 6 5 4 4 4 5 6 8 11 10 11 12 10 10 12 14 15 15 15 15 14 12 14 14 16 14 14 10 9 8 6 3 5 5 5 6 8 8
7 7 7 7 7 6 6 5 4 4 3 4 6 9 11 11 10 10 12 12 11 13 14 14 14 14 13 14 14 14 16 13 12 9 7 7 3 4 4 4 5 5 5
6 7 7 7 7 7 7 6 6 5 5 4 4 6 9 11 12 12 11 10 9 9 13 13 13 13 12 14 14 13 15 13 13 10 8 7 6 7 6 5 4 4 3
7 8 9 9 9 9 9 8 8 7 7 6 5 5 7 9 11 11 11 11 9 8 10 10 11 11 11 11 11 11 12 13 12 11 8 7 4 3 4 4 4 3 2
7 7 8 8 8 9 9 9 9 9 8 7 7 6 6 6 7 9 9 10 8 8 9 10 10 10 10 8 8 7 8 8 9 9 8 5 4 3 4 5 5 4 2
6 7 7 8 8 9 9 10 10 9 9 9 9 7 7 6 7 8 8 7 7 6 8 8 8 7 7 8 7 6 7 7 7 6 6 5 4 3 3 3 4 5 5
5 6 7 7 8 8 8 9 9 9 9 9 8 7 8 7 7 6 6 6 6 5 5 5 5 5 5 6 6 6 7 8 7 6 8 7 5 5 4 4 4 3 3
5 5 6 6 7 7 8 8 9 9 9 9 9 8 7 7 6 5 5 4 3 2 2 2 3 4 5 6 7 8 9 10 9 8 9 9 8 6 5 5 4 3 3
3 4 5 6 7 8 8 8 9 9 9 9 8 8 7 7 6 6 5 4 4 3 3 3 5 6 7 7 9 10 10 11 11 10 10 9 7 7 5 4 4 3 2
3 4 5 6 7 7 8 8 8 8 8 8 8 8 8 8 8 8 7 7 7 7 7 7 7 8 8 9 9 10 10 10 10 10 10 9 8 7 4 4 3 2 2
3 4 5 5 6 7 7 7 8 8 8 8 9 9 10 9 9 10 10 10 10 10 10 10 10 10 10 10 11 11 11 11 10 9 8 7 6 6 5 3 3 2 3
2 4 4 5 6 6 7 7 7 8 8 8 9 9 9 10 10 11 11 11 11 11 11 11 11 11 10 10 11 11 11 11 10 9 8 6 6 5 3 2 2 3 3
1 2 3 4 5 6 6 6 7 7 8 9 9 9 9 10 10 11 11 12 12 11 12 11 11 11 10 16 17 12 10 9 9 8 7 6 5 4 2 0 2 3 3
1 1 2 3 4 5 5 6 6 7 8 8 8 8 9 10 10 10 11 11 11 11 11 11 12 12 14 17 17 15 10 8 7 6 5 3 3 2 0 1 2 2 4
2 2 2 3 3 4 5 5 6 7 7 8 8 8 8 9 9 10 10 10 9 9 9 10 10 10 12 16 15 14 9 7 6 4 3 2 1 1 3 3 3 4 5
3 3 2 3 3 4 5 5 6 7 7 7 7 7 7 8 9 9 9 8 8 9 8 8 9 9 10 12 11 8 5 4 4 3 2 2 2 3 5 4 4 6 6
4 3 3 4 4 4 4 6 6 7 7 7 7 7 7 8 8 8 8 7 7 8 8 8 8 7 7 9 9 5 3 3 2 1 2 2 4 6 6 5 5 6 6
5 4 4 4 4 4 5 6 6 6 6 6 7 7 7 7 7 7 7 7 7 7 7 7 6 7 7 7 7 5 3 2 2 2 2 2 6 7 8 7 6 7 9
6 5 5 4 3 4 5 6 6 5 5 6 7 7 7 6 6 7 6 6 6 6 6 5 5 4 5 5 6 6 5 4 3 3 3 4 7 8 8 7 7 9 8
7 6 6 5 4 4 5 6 5 5 6 7 7 6 6 6 5 6 6 5 4 4 3 3 3 3 3 3 5 5 5 6 4 3 5 7 8 8 6 5 7 7 4
7 7 7 7 5 5 5 6 6 6 6 7 6 5 6 6 5 4 4 3 3 3 2 2 2 1 1 2 2 3 3 3 3 3 4 6 6 5 5 5 4 3 4
8 7 7 7 7 6 6 6 6 6 7 6 6 5 5 5 5 4 4 3 3 3 2 2 1 1 2 3 6 5 4 4 5 5 4 4 3 3 3 3 3 3 4
9 8 8 8 7 7 7 6 6 6 7 6 5 4 3 3 3 4 4 5 4 4 4 2 2 1 3 5 6 6 7 7 7 5 4 4 4 4 4 5 5 4 4
Wind_Direction
285 295 291 279 264 253 247 244 242 237 234 227 221 219 222 225 225 227 230 228 224 220 218 219 218 212 212 210 207 202 201 200 182 178 196 210 219 220 212 210 204 198 196
306 331 328 309 284 271 265 257 250 247 242 235 232 229 231 231 229 227 230 229 226 223 218 219 218 213 214 214 209 201 200 191 187 191 192 211 208 216 214 209 211 206 196
30 28 28 26 16 353 321 296 279 267 257 252 246 238 235 237 233 230 230 228 227 225 222 222 221 216 213 214 210 204 203 197 196 203 198 203 219 184 188 210 209 208 202
50 44 38 34 27 15 360 339 316 293 277 257 245 238 234 234 235 235 236 235 231 229 226 225 224 220 216 217 213 209 211 207 197 205 226 243 257 189 177 188 207 210 211
42 40 35 29 26 17 7 357 350 342 322 280 254 249 246 248 251 249 247 245 239 232 229 227 226 224 221 221 217 210 212 212 206 195 193 207 228 239 206 183 176 194 209
35 34 30 24 23 17 10 0 354 351 344 323 288 259 257 257 255 252 250 249 245 238 233 228 228 227 224 223 220 214 212 213 214 202 193 187 187 198 205 200 170 173 163
24 21 17 12 9 5 2 356 351 345 343 333 314 293 275 268 262 260 256 253 249 242 237 230 231 230 227 224 219 215 212 211 211 206 201 204 197 162 173 167 144 140 135
19 16 10 3 360 357 354 352 347 341 339 334 324 309 294 277 270 268 266 262 258 255 250 238 234 232 228 219 210 207 205 203 204 201 190 178 163 150 150 152 145 144 155
10 7 4 0 357 354 353 348 343 339 338 333 324 317 311 297 286 279 273 269 265 265 256 246 235 226 216 205 193 192 185 176 178 169 156 141 128 119 116 122 140 152 171
7 4 1 360 358 355 350 349 347 342 338 335 332 324 320 316 306 295 287 282 279 270 257 246 227 206 188 177 166 154 151 149 144 139 136 125 118 106 98 97 88 92 136
1 1 1 2 359 357 356 356 354 351 349 347 343 340 339 337 332 326 323 317 311 300 267 213 174 154 146 144 140 138 139 135 129 129 127 120 119 112 100 93 92 86 93
6 4 5 3 5 4 3 2 1 360 357 354 355 358 0 3 6 8 9 16 30 42 61 97 111 113 119 124 128 129 129 129 127 125 120 117 113 105 103 106 108 108 113
12 13 15 12 10 8 6 7 8 6 4 8 15 21 23 25 28 31 35 44 55 63 70 80 89 95 101 105 109 112 112 110 111 115 116 117 117 115 114 115 120 129 155
16 18 17 16 15 12 11 13 16 16 18 26 34 37 37 39 42 46 50 55 61 67 71 76 80 85 89 93 97 99 100 98 96 95 98 102 110 118 127 132 145 165 197
20 23 19 18 17 18 21 23 25 27 33 43 45 45 46 51 54 57 59 61 63 67 72 76 78 81 83 88 93 93 95 96 93 87 86 90 101 117 129 146 178 203 224
32 34 27 25 24 25 27 31 34 37 44 52 52 52 55 58 59 61 64 66 66 69 72 73 75 74 80 91 92 94 91 92 94 94 92 94 91 93 90 137 248 249 255
95 56 40 38 35 35 36 42 44 49 56 59 58 58 62 64 65 66 68 69 69 72 75 76 78 80 85 88 90 89 88 88 89 93 97 98 92 73 302 280 278 280 285
142 115 84 71 60 58 58 60 61 63 66 66 65 65 68 69 69 70 70 71 72 72 73 75 80 85 88 90 89 89 87 91 92 91 86 77 55 2 310 295 291 285 277
131 117 105 94 83 74 73 76 73 71 71 67 65 68 74 77 75 74 73 73 76 74 72 73 75 81 87 91 93 91 92 92 90 79 52 10 338 325 304 297 295 294 289
133 128 121 108 96 88 91 89 80 75 71 69 70 74 77 81 81 78 77 76 78 79 79 74 72 78 85 89 90 79 74 73 66 48 19 358 328 321 319 309 298 295 303
138 134 126 113 103 105 104 93 84 77 78 82 82 80 79 82 84 83 81 84 86 86 84 82 75 72 71 79 75 60 37 29 9 349 344 348 331 325 324 314 300 300 303
148 143 133 120 111 113 114 105 94 95 95 90 84 81 81 84 88 90 87 88 93 93 91 88 81 69 61 52 50 39 29 10 349 339 336 334 330 325 321 313 306 304 302
156 150 143 133 123 121 124 119 117 118 110 100 93 90 88 85 89 94 96 94 89 89 89 86 81 70 51 45 32 18 10 1 341 336 335 329 326 319 306 302 308 305 292
162 158 157 151 140 132 126 125 131 130 122 114 108 105 100 95 90 87 85 87 87 90 90 82 75 62 24 6 354 345 340 335 326 317 315 313 309 300 300 304 296 289 294
166 167 167 158 149 144 139 140 144 143 133 125 119 113 105 104 97 87 76 76 72 49 54 59 35 351 351 357 344 338 335 334 333 323 307 309 315 314 315 307 302 297 289
170 171 170 164 157 156 152 153 157 156 146 137 134 127 123 119 116 115 105 72 67 76 65 41 350 322 326 335 334 332 332 331 331 317 306 315 319 320 319 315 311 307 300